Flag Weather past 2 weeks in Chernobyl, Ukraine

Now
23 °F

Cold.


Feels Like: 18 °F
Forecast: 18 / 25 °F
Wind: 3 mph from Northeast

Location: Hostomel

Current Time: Nov 26, 2014 at 10:31:10 PM

Latest Report: Nov 26, 2014 at 10:00 PM


Visibility: 3 mi

Pressure: 30.36 "Hg

Humidity: 93%

Dew point: 21 °F

Location of ChernobylLocation

Historic Weather in Chernobyl — Graph

°F

Chernobyl temperature yesterday

Maximum temperature yesterday: 27 °F (at 8:00 AM)
Minimum temperature yesterday: 12 °F (at 1:00 AM)
Average temperature yesterday: 23 °F

Past Weeks' High & Low Weather Summary

 TemperatureHumidityPressure
High45 °F (Nov 11, 9:00 PM)100% (Nov 14, 10:00 PM)30.60 "Hg (Nov 14, 10:00 PM)
Low12 °F (Nov 25, 1:00 AM)36% (Nov 21, 1:30 PM)30.15 "Hg (Nov 13, 4:00 AM)
Average33 °F86%30.31 "Hg
* Reported Nov 11 9:00 PM — Nov 26 9:00 PM, Chernobyl, Weather by CustomWeather, © 2014

Note: Actual official high and low records may vary slightly from our data, if they occured in-between our weather recording intervals... More about our weather records

Advertising

Chernobyl weather history for previous 24 hours

 ConditionsComfort  
Time TempWeatherWind HumidityBarometerVisibility
9:00 PM
Nov 26
21 °FCold.1 mph100%30.36 "Hg3 mi
8:00 PM21 °FCold.3 mph100%30.36 "Hg3 mi
7:00 PM23 °FCold.3 mph93%30.36 "Hg3 mi
6:00 PM23 °FCold.3 mph93%30.36 "Hg3 mi
5:00 PM23 °FLight snow. Overcast.3 mph93%30.39 "Hg3 mi
4:30 PM23 °FLight snow. Overcast.3 mph93%30.39 "Hg3 mi
4:00 PM23 °FLight snow. Broken clouds.3 mph93%30.39 "Hg4 mi
3:30 PM23 °FLight snow. Clear.3 mph93%30.39 "Hg4 mi
3:00 PM23 °FLight snow. Overcast.3 mph93%30.39 "Hg5 mi
2:30 PM23 °FLight snow. Overcast.3 mph86%30.39 "Hg6 mi
2:00 PM23 °FOvercast.3 mph86%30.39 "HgN/A
1:30 PM23 °FOvercast.3 mph86%30.39 "HgN/A
1:00 PM23 °FOvercast.3 mph86%30.39 "HgN/A
12:30 PM23 °FOvercast.6 mph86%30.39 "HgN/A
12:00 PM23 °FOvercast.6 mph86%30.42 "HgN/A
11:30 AM23 °FLight snow. Overcast.6 mph86%30.42 "HgN/A
11:00 AM23 °FLight snow. Overcast.3 mph86%30.42 "Hg6 mi
10:30 AM23 °FLight snow. Overcast.3 mph86%30.42 "Hg6 mi
10:00 AM23 °FLight snow. Overcast.3 mph86%30.42 "Hg5 mi
9:30 AM23 °FLight snow. Overcast.1 mph86%30.42 "Hg6 mi
9:00 AM23 °FLight snow. Overcast.3 mph86%30.42 "Hg4 mi
8:00 AM23 °FOvercast.3 mph86%30.42 "HgN/A
7:00 AM23 °FOvercast.3 mph86%30.42 "Hg6 mi
6:00 AM23 °FCold.1 mph93%30.42 "Hg5 mi
5:00 AM23 °FCold.3 mph93%30.42 "Hg6 mi
4:00 AM23 °FCold.1 mph93%30.42 "Hg5 mi
3:00 AM23 °FCold.1 mph93%30.42 "Hg6 mi
2:00 AM23 °FCold.1 mph93%30.45 "Hg4 mi
1:00 AM23 °FCold.1 mph93%30.45 "Hg6 mi
12:00 AM23 °FCold.1 mph93%30.48 "Hg4 mi
11:00 PM
Nov 25
23 °FCold.1 mph93%30.48 "Hg6 mi
10:00 PM23 °FCold.1 mph93%30.48 "Hg6 mi
Weather by CustomWeather, © 2014

See weather overviewHow to use our weather pages